Time,TemperatureF,DewpointF,PressureIn,WindDirection,WindDirectionDegrees,WindSpeedMPH,WindSpeedGustMPH,Humidity,HourlyPrecipIn,Conditions,Clouds,dailyrainin,SoftwareType,DateUTC
2013-02-09 00:01:00,47.0,-99.9,29.93,NW,311,1.0,1.0,-999,-99.99,,,-99.99,,2013-02-09 08:01:00,
2013-02-09 00:11:00,47.0,-99.9,29.93,NW,311,1.0,1.0,-999,-99.99,,,-99.99,,2013-02-09 08:11:00,
2013-02-09 00:22:00,47.0,-99.9,29.93,NW,315,0.0,1.0,-999,-99.99,,,-99.99,,2013-02-09 08:22:00,
2013-02-09 00:32:00,47.0,-99.9,29.93,NW,315,0.0,1.0,-999,-99.99,,,-99.99,,2013-02-09 08:32:00,
2013-02-09 00:42:00,47.0,-99.9,29.93,NW,315,0.0,1.0,-999,-99.99,,,-99.99,,2013-02-09 08:42:00,
2013-02-09 01:03:00,46.0,-99.9,29.94,NNE,23,0.0,0.0,-999,-99.99,,,-99.99,,2013-02-09 09:03:00,
2013-02-09 01:11:00,46.0,-99.9,29.94,NNE,23,0.0,0.0,-999,-99.99,,,-99.99,,2013-02-09 09:11:00,
2013-02-09 01:22:00,46.0,-99.9,29.94,North,360,0.0,0.0,-999,-99.99,,,-99.99,,2013-02-09 09:22:00,
2013-02-09 01:32:00,46.0,-99.9,29.93,NNE,23,0.0,0.0,-999,-99.99,,,-99.99,,2013-02-09 09:32:00,
2013-02-09 01:42:00,46.0,-99.9,29.93,NNE,23,0.0,0.0,-999,-99.99,,,-99.99,,2013-02-09 09:42:00,
2013-02-09 01:52:00,46.0,-99.9,29.93,North,355,0.0,1.0,-999,-99.99,,,-99.99,,2013-02-09 09:52:00,
2013-02-09 02:01:00,46.0,-99.9,29.93,North,356,0.0,1.0,-999,-99.99,,,-99.99,,2013-02-09 10:01:00,
2013-02-09 02:11:00,46.0,-99.9,29.93,North,356,0.0,1.0,-999,-99.99,,,-99.99,,2013-02-09 10:11:00,
2013-02-09 02:21:00,45.0,-99.9,29.95,WNW,286,0.0,0.0,-999,-99.99,,,-99.99,,2013-02-09 10:21:00,
2013-02-09 02:32:00,45.0,-99.9,29.95,WNW,286,0.0,0.0,-999,-99.99,,,-99.99,,2013-02-09 10:32:00,
2013-02-09 02:42:00,45.0,-99.9,29.95,WNW,286,0.0,0.0,-999,-99.99,,,-99.99,,2013-02-09 10:42:00,
2013-02-09 02:52:00,45.0,-99.9,29.95,WNW,286,0.0,0.0,-999,-99.99,,,-99.99,,2013-02-09 10:52:00,
2013-02-09 03:02:00,45.0,-99.9,29.95,NNW,338,0.0,0.0,-999,-99.99,,,-99.99,,2013-02-09 11:02:00,
2013-02-09 03:11:00,45.0,-99.9,29.95,NNW,338,0.0,0.0,-999,-99.99,,,-99.99,,2013-02-09 11:11:00,
2013-02-09 03:22:00,44.0,-99.9,29.94,NE,45,0.0,0.0,-999,-99.99,,,-99.99,,2013-02-09 11:22:00,
2013-02-09 03:32:00,44.0,-99.9,29.96,ENE,68,0.0,0.0,-999,-99.99,,,-99.99,,2013-02-09 11:32:00,
2013-02-09 03:42:00,44.0,-99.9,29.96,ENE,68,0.0,0.0,-999,-99.99,,,-99.99,,2013-02-09 11:42:00,
2013-02-09 03:52:00,44.0,-99.9,29.96,East,90,0.0,0.0,-999,-99.99,,,-99.99,,2013-02-09 11:52:00,
2013-02-09 04:02:00,44.0,-99.9,29.96,East,82,1.0,2.0,-999,-99.99,,,-99.99,,2013-02-09 12:02:00,
2013-02-09 04:11:00,44.0,-99.9,29.96,East,82,1.0,2.0,-999,-99.99,,,-99.99,,2013-02-09 12:11:00,
2013-02-09 04:22:00,44.0,-99.9,29.95,SSW,203,0.0,1.0,-999,-99.99,,,-99.99,,2013-02-09 12:22:00,
2013-02-09 04:32:00,44.0,-99.9,29.96,SW,225,0.0,0.0,-999,-99.99,,,-99.99,,2013-02-09 12:32:00,
2013-02-09 04:42:00,44.0,-99.9,29.96,SW,225,0.0,0.0,-999,-99.99,,,-99.99,,2013-02-09 12:42:00,
2013-02-09 04:50:00,43.0,-99.9,29.95,WNW,297,0.0,0.0,-999,-99.99,,,-99.99,,2013-02-09 12:50:00,
2013-02-09 04:53:00,43.0,-99.9,29.97,NE,46,2.0,2.0,-999,-99.99,,,-99.99,,2013-02-09 12:53:00,
2013-02-09 05:02:00,43.0,-99.9,29.95,WNW,297,0.0,0.0,-999,-99.99,,,-99.99,,2013-02-09 13:02:00,
2013-02-09 05:11:00,43.0,-99.9,29.95,WNW,297,0.0,0.0,-999,-99.99,,,-99.99,,2013-02-09 13:11:00,
2013-02-09 05:22:00,43.0,-99.9,29.95,WNW,297,0.0,0.0,-999,-99.99,,,-99.99,,2013-02-09 13:22:00,
2013-02-09 05:32:00,43.0,-99.9,29.95,WNW,297,0.0,0.0,-999,-99.99,,,-99.99,,2013-02-09 13:32:00,
2013-02-09 05:42:00,43.0,-99.9,29.95,WNW,297,0.0,0.0,-999,-99.99,,,-99.99,,2013-02-09 13:42:00,
2013-02-09 06:22:00,42.0,-99.9,29.95,ENE,65,1.0,1.0,-999,-99.99,,,-99.99,,2013-02-09 14:22:00,
2013-02-09 06:32:00,42.0,-99.9,29.99,WSW,256,1.0,1.0,-999,-99.99,,,-99.99,,2013-02-09 14:32:00,
2013-02-09 06:42:00,42.0,-99.9,29.99,WSW,256,1.0,1.0,-999,-99.99,,,-99.99,,2013-02-09 14:42:00,
2013-02-09 06:52:00,42.0,-99.9,29.98,ENE,77,1.0,1.0,-999,-99.99,,,-99.99,,2013-02-09 14:52:00,
2013-02-09 07:02:00,42.0,-99.9,30.01,West,270,0.0,0.0,-999,-99.99,,,-99.99,,2013-02-09 15:02:00,
2013-02-09 07:11:00,42.0,-99.9,30.01,West,270,0.0,0.0,-999,-99.99,,,-99.99,,2013-02-09 15:11:00,
2013-02-09 07:22:00,42.0,-99.9,30.01,West,270,0.0,0.0,-999,-99.99,,,-99.99,,2013-02-09 15:22:00,
2013-02-09 07:32:00,42.0,-99.9,30.01,West,270,0.0,0.0,-999,-99.99,,,-99.99,,2013-02-09 15:32:00,
2013-02-09 07:42:00,42.0,-99.9,30.01,West,270,0.0,0.0,-999,-99.99,,,-99.99,,2013-02-09 15:42:00,
2013-02-09 07:52:00,42.0,-99.9,30.01,West,278,0.0,2.0,-999,-99.99,,,-99.99,,2013-02-09 15:52:00,
2013-02-09 08:01:00,42.0,-99.9,30.02,NNW,333,1.0,1.0,-999,-99.99,,,-99.99,,2013-02-09 16:01:00,
2013-02-09 08:11:00,42.0,-99.9,30.02,NNW,333,1.0,1.0,-999,-99.99,,,-99.99,,2013-02-09 16:11:00,
2013-02-09 08:22:00,42.0,-99.9,30.05,NNE,19,2.0,4.0,-999,-99.99,,,-99.99,,2013-02-09 16:22:00,
2013-02-09 08:32:00,42.0,-99.9,30.04,NNE,25,2.0,4.0,-999,-99.99,,,-99.99,,2013-02-09 16:32:00,
2013-02-09 08:42:00,42.0,-99.9,30.04,NNE,25,2.0,4.0,-999,-99.99,,,-99.99,,2013-02-09 16:42:00,
2013-02-09 08:52:00,43.0,-99.9,30.04,ENE,76,2.0,4.0,-999,-99.99,,,-99.99,,2013-02-09 16:52:00,
2013-02-09 09:01:00,44.0,-99.9,30.04,ENE,73,3.0,5.0,-999,-99.99,,,-99.99,,2013-02-09 17:01:00,
2013-02-09 09:11:00,44.0,-99.9,30.04,ENE,73,3.0,5.0,-999,-99.99,,,-99.99,,2013-02-09 17:11:00,
2013-02-09 09:22:00,44.0,-99.9,30.05,NE,41,2.0,5.0,-999,-99.99,,,-99.99,,2013-02-09 17:22:00,
2013-02-09 09:32:00,45.0,-99.9,30.07,East,83,3.0,6.0,-999,-99.99,,,-99.99,,2013-02-09 17:32:00,
2013-02-09 09:42:00,45.0,-99.9,30.07,East,83,3.0,6.0,-999,-99.99,,,-99.99,,2013-02-09 17:42:00,
2013-02-09 09:52:00,46.0,-99.9,30.07,ESE,103,3.0,6.0,-999,-99.99,,,-99.99,,2013-02-09 17:52:00,
2013-02-09 10:02:00,47.0,-99.9,30.06,ESE,104,3.0,5.0,-999,-99.99,,,-99.99,,2013-02-09 18:02:00,
2013-02-09 10:12:00,47.0,-99.9,30.06,ESE,104,3.0,5.0,-999,-99.99,,,-99.99,,2013-02-09 18:12:00,
2013-02-09 10:23:00,47.0,-99.9,30.06,ENE,74,3.0,5.0,-999,-99.99,,,-99.99,,2013-02-09 18:23:00,
2013-02-09 10:32:00,48.0,-99.9,30.07,East,91,3.0,5.0,-999,-99.99,,,-99.99,,2013-02-09 18:32:00,
2013-02-09 10:42:00,48.0,-99.9,30.07,East,91,3.0,5.0,-999,-99.99,,,-99.99,,2013-02-09 18:42:00,
2013-02-09 10:52:00,49.0,-99.9,30.05,NE,54,3.0,5.0,-999,-99.99,,,-99.99,,2013-02-09 18:52:00,
2013-02-09 11:02:00,50.0,-99.9,30.05,SSW,204,2.0,3.0,-999,-99.99,,,-99.99,,2013-02-09 19:02:00,
2013-02-09 11:11:00,50.0,-99.9,30.05,SSW,204,2.0,3.0,-999,-99.99,,,-99.99,,2013-02-09 19:11:00,
2013-02-09 11:22:00,50.0,-99.9,30.06,SSE,147,2.0,5.0,-999,-99.99,,,-99.99,,2013-02-09 19:22:00,
2013-02-09 11:32:00,51.0,-99.9,30.07,WNW,292,0.0,3.0,-999,-99.99,,,-99.99,,2013-02-09 19:32:00,
2013-02-09 11:42:00,51.0,-99.9,30.07,WNW,292,0.0,3.0,-999,-99.99,,,-99.99,,2013-02-09 19:42:00,
2013-02-09 11:52:00,52.0,-99.9,30.06,South,182,2.0,6.0,-999,-99.99,,,-99.99,,2013-02-09 19:52:00,
2013-02-09 12:02:00,53.0,-99.9,30.07,South,185,4.0,9.0,-999,-99.99,,,-99.99,,2013-02-09 20:02:00,
2013-02-09 12:11:00,53.0,-99.9,30.07,South,185,4.0,9.0,-999,-99.99,,,-99.99,,2013-02-09 20:11:00,
2013-02-09 12:22:00,53.0,-99.9,30.08,South,179,2.0,9.0,-999,-99.99,,,-99.99,,2013-02-09 20:22:00,
2013-02-09 12:32:00,54.0,-99.9,30.07,South,187,4.0,9.0,-999,-99.99,,,-99.99,,2013-02-09 20:32:00,
2013-02-09 12:42:00,54.0,-99.9,30.07,South,187,4.0,9.0,-999,-99.99,,,-99.99,,2013-02-09 20:42:00,
2013-02-09 12:52:00,55.0,-99.9,30.05,SSW,201,5.0,9.0,-999,-99.99,,,-99.99,,2013-02-09 20:52:00,
2013-02-09 13:02:00,56.0,-99.9,30.07,South,177,2.0,9.0,-999,-99.99,,,-99.99,,2013-02-09 21:02:00,
2013-02-09 13:12:00,56.0,-99.9,30.07,South,177,2.0,9.0,-999,-99.99,,,-99.99,,2013-02-09 21:12:00,
2013-02-09 13:22:00,56.0,-99.9,30.07,ESE,116,5.0,10.0,-999,-99.99,,,-99.99,,2013-02-09 21:22:00,
2013-02-09 13:32:00,56.0,-99.9,30.05,South,170,6.0,11.0,-999,-99.99,,,-99.99,,2013-02-09 21:32:00,
2013-02-09 13:42:00,56.0,-99.9,30.05,South,170,6.0,11.0,-999,-99.99,,,-99.99,,2013-02-09 21:42:00,
2013-02-09 13:52:00,56.0,-99.9,30.05,SSW,206,4.0,11.0,-999,-99.99,,,-99.99,,2013-02-09 21:52:00,
2013-02-09 14:02:00,57.0,-99.9,30.06,WSW,242,5.0,13.0,-999,-99.99,,,-99.99,,2013-02-09 22:02:00,
2013-02-09 14:11:00,57.0,-99.9,30.06,WSW,242,5.0,13.0,-999,-99.99,,,-99.99,,2013-02-09 22:11:00,
2013-02-09 14:22:00,57.0,-99.9,30.05,SW,236,6.0,11.0,-999,-99.99,,,-99.99,,2013-02-09 22:22:00,
2013-02-09 14:32:00,57.0,-99.9,30.07,South,185,3.0,9.0,-999,-99.99,,,-99.99,,2013-02-09 22:32:00,
2013-02-09 14:42:00,57.0,-99.9,30.07,South,185,3.0,9.0,-999,-99.99,,,-99.99,,2013-02-09 22:42:00,
2013-02-09 14:52:00,57.0,-99.9,30.07,South,185,3.0,9.0,-999,-99.99,,,-99.99,,2013-02-09 22:52:00,
2013-02-09 15:02:00,57.0,-99.9,30.06,SSW,208,4.0,10.0,-999,-99.99,,,-99.99,,2013-02-09 23:02:00,
2013-02-09 15:11:00,57.0,-99.9,30.06,SSW,208,4.0,10.0,-999,-99.99,,,-99.99,,2013-02-09 23:11:00,
2013-02-09 15:22:00,57.0,-99.9,30.05,SSW,196,5.0,9.0,-999,-99.99,,,-99.99,,2013-02-09 23:22:00,
2013-02-09 15:32:00,57.0,-99.9,30.07,SE,128,4.0,8.0,-999,-99.99,,,-99.99,,2013-02-09 23:32:00,
2013-02-09 15:42:00,57.0,-99.9,30.07,SE,128,4.0,8.0,-999,-99.99,,,-99.99,,2013-02-09 23:42:00,
2013-02-09 15:52:00,57.0,-99.9,30.07,SE,146,6.0,10.0,-999,-99.99,,,-99.99,,2013-02-09 23:52:00,
2013-02-09 16:02:00,56.0,-99.9,30.06,SSW,197,4.0,11.0,-999,-99.99,,,-99.99,,2013-02-10 00:02:00,
2013-02-09 16:12:00,56.0,-99.9,30.06,SSW,197,4.0,11.0,-999,-99.99,,,-99.99,,2013-02-10 00:12:00,
2013-02-09 16:22:00,56.0,-99.9,30.05,SSW,202,4.0,8.0,-999,-99.99,,,-99.99,,2013-02-10 00:22:00,
2013-02-09 16:32:00,56.0,-99.9,30.06,SW,229,4.0,10.0,-999,-99.99,,,-99.99,,2013-02-10 00:32:00,
2013-02-09 16:42:00,56.0,-99.9,30.06,SW,229,4.0,10.0,-999,-99.99,,,-99.99,,2013-02-10 00:42:00,
2013-02-09 16:52:00,56.0,-99.9,30.07,SW,216,6.0,10.0,-999,-99.99,,,-99.99,,2013-02-10 00:52:00,
2013-02-09 17:01:00,56.0,-99.9,30.06,SW,231,3.0,10.0,-999,-99.99,,,-99.99,,2013-02-10 01:01:00,
2013-02-09 17:12:00,56.0,-99.9,30.06,SW,231,3.0,10.0,-999,-99.99,,,-99.99,,2013-02-10 01:12:00,
2013-02-09 17:22:00,55.0,-99.9,30.06,SSW,204,3.0,7.0,-999,-99.99,,,-99.99,,2013-02-10 01:22:00,
2013-02-09 17:32:00,55.0,-99.9,30.06,SW,233,4.0,8.0,-999,-99.99,,,-99.99,,2013-02-10 01:32:00,
2013-02-09 17:42:00,55.0,-99.9,30.06,SW,233,4.0,8.0,-999,-99.99,,,-99.99,,2013-02-10 01:42:00,
2013-02-09 17:52:00,54.0,-99.9,30.06,SW,218,4.0,6.0,-999,-99.99,,,-99.99,,2013-02-10 01:52:00,
2013-02-09 18:01:00,54.0,-99.9,30.07,SSW,209,2.0,5.0,-999,-99.99,,,-99.99,,2013-02-10 02:01:00,
2013-02-09 18:11:00,54.0,-99.9,30.07,SSW,209,2.0,5.0,-999,-99.99,,,-99.99,,2013-02-10 02:11:00,
2013-02-09 18:22:00,54.0,-99.9,30.06,SSW,213,2.0,6.0,-999,-99.99,,,-99.99,,2013-02-10 02:22:00,
2013-02-09 18:32:00,53.0,-99.9,30.08,SSW,207,1.0,3.0,-999,-99.99,,,-99.99,,2013-02-10 02:32:00,
2013-02-09 18:42:00,53.0,-99.9,30.08,SSW,207,1.0,3.0,-999,-99.99,,,-99.99,,2013-02-10 02:42:00,
2013-02-09 18:52:00,53.0,-99.9,30.07,SSE,153,1.0,3.0,-999,-99.99,,,-99.99,,2013-02-10 02:52:00,
2013-02-09 19:02:00,52.0,-99.9,30.06,South,187,1.0,3.0,-999,-99.99,,,-99.99,,2013-02-10 03:02:00,
2013-02-09 19:12:00,52.0,-99.9,30.06,South,187,1.0,3.0,-999,-99.99,,,-99.99,,2013-02-10 03:12:00,
2013-02-09 19:22:00,52.0,-99.9,30.08,SE,128,1.0,2.0,-999,-99.99,,,-99.99,,2013-02-10 03:22:00,
2013-02-09 19:32:00,53.0,-99.9,30.08,SSE,154,1.0,2.0,-999,-99.99,,,-99.99,,2013-02-10 03:32:00,
2013-02-09 19:42:00,53.0,-99.9,30.08,SSE,154,1.0,2.0,-999,-99.99,,,-99.99,,2013-02-10 03:42:00,
2013-02-09 19:52:00,52.0,-99.9,30.08,SE,133,1.0,1.0,-999,-99.99,,,-99.99,,2013-02-10 03:52:00,
2013-02-09 20:02:00,52.0,-99.9,30.08,SE,127,1.0,2.0,-999,-99.99,,,-99.99,,2013-02-10 04:02:00,
2013-02-09 20:11:00,52.0,-99.9,30.08,SE,127,1.0,2.0,-999,-99.99,,,-99.99,,2013-02-10 04:11:00,
2013-02-09 20:22:00,52.0,-99.9,30.09,SE,124,1.0,1.0,-999,-99.99,,,-99.99,,2013-02-10 04:22:00,
2013-02-09 20:32:00,52.0,-99.9,30.10,SE,125,1.0,2.0,-999,-99.99,,,-99.99,,2013-02-10 04:32:00,
2013-02-09 20:42:00,52.0,-99.9,30.10,SE,125,1.0,2.0,-999,-99.99,,,-99.99,,2013-02-10 04:42:00,
2013-02-09 20:52:00,52.0,-99.9,30.09,East,90,0.0,1.0,-999,-99.99,,,-99.99,,2013-02-10 04:52:00,
2013-02-09 21:01:00,51.0,-99.9,30.10,East,90,0.0,0.0,-999,-99.99,,,-99.99,,2013-02-10 05:01:00,
2013-02-09 21:11:00,51.0,-99.9,30.10,East,90,0.0,0.0,-999,-99.99,,,-99.99,,2013-02-10 05:11:00,
2013-02-09 21:23:00,51.0,-99.9,30.09,East,86,1.0,1.0,-999,-99.99,,,-99.99,,2013-02-10 05:23:00,
2013-02-09 21:32:00,51.0,-99.9,30.09,ENE,64,2.0,3.0,-999,-99.99,,,-99.99,,2013-02-10 05:32:00,
2013-02-09 21:42:00,51.0,-99.9,30.09,ENE,64,2.0,3.0,-999,-99.99,,,-99.99,,2013-02-10 05:42:00,
2013-02-09 21:52:00,51.0,-99.9,30.08,ESE,110,2.0,3.0,-999,-99.99,,,-99.99,,2013-02-10 05:52:00,
2013-02-09 22:02:00,50.0,-99.9,30.08,East,90,2.0,3.0,-999,-99.99,,,-99.99,,2013-02-10 06:02:00,
2013-02-09 22:11:00,50.0,-99.9,30.08,East,90,2.0,3.0,-999,-99.99,,,-99.99,,2013-02-10 06:11:00,
2013-02-09 22:21:00,50.0,-99.9,30.13,East,91,1.0,2.0,-999,-99.99,,,-99.99,,2013-02-10 06:21:00,
2013-02-09 22:32:00,50.0,-99.9,30.11,ENE,74,2.0,3.0,-999,-99.99,,,-99.99,,2013-02-10 06:32:00,
2013-02-09 22:42:00,50.0,-99.9,30.11,ENE,74,2.0,3.0,-999,-99.99,,,-99.99,,2013-02-10 06:42:00,
2013-02-09 22:50:00,50.0,-99.9,30.09,ENE,72,1.0,2.0,-999,-99.99,,,-99.99,,2013-02-10 06:50:00,
2013-02-09 22:52:00,50.0,-99.9,30.11,East,95,1.0,3.0,-999,-99.99,,,-99.99,,2013-02-10 06:52:00,
2013-02-09 23:01:00,50.0,-99.9,30.09,East,82,1.0,2.0,-999,-99.99,,,-99.99,,2013-02-10 07:01:00,
2013-02-09 23:11:00,50.0,-99.9,30.09,East,82,1.0,2.0,-999,-99.99,,,-99.99,,2013-02-10 07:11:00,
2013-02-09 23:21:00,50.0,-99.9,30.09,ENE,72,1.0,2.0,-999,-99.99,,,-99.99,,2013-02-10 07:21:00,
2013-02-09 23:32:00,50.0,-99.9,30.09,ENE,72,1.0,2.0,-999,-99.99,,,-99.99,,2013-02-10 07:32:00,
2013-02-09 23:42:00,50.0,-99.9,30.09,ENE,72,1.0,2.0,-999,-99.99,,,-99.99,,2013-02-10 07:42:00,